STARLINK-32304, 60738

Orbit data source: Space-Track

STARLINK-32304, 60738 is a payload satellite owned by SpaceX/Seattle (US) in LEO that was launched on Wed, 28 Aug 2024 UTC via an FALCON 9 launch vehicle from the Air Force Eastern Test Range (AFETR). Payload-class satellites include a variety of spacecraft equipped with specific instruments for various scientific and technological missions. These include communications satellites like Starlink; space stations such as the ISS; scientific satellites like the Hubble; Earth observation satellites from companies like Planet Labs, Umbra, and HawkEye 360; GPS; miniature CubeSats for education and research; and military/defense satellites.

Loading next visibility...
Identifier
60738, 2024-152U
Orbit
LEO
Country
Flag of USUS
Related business
Manufacturer
SpaceX/Seattle
Mission
Operational Commercial Communications
Bus & Motor
STARLINK V2M, Unknown motor
Mass
730 kg wet, ~700 kg dry
Launch date (UTC)
2024-08-28 (1 year ago)
Launch vehicle
FALCON 9
Launch site
Air Force Eastern Test Range (AFETR)
Object type
Payload
Rocket body
Debris
Shape & HBR
Box + 2 Pan, 17.7 m
Radar Cross Section
33.884 m², Large (>1 m²)

Expand to show TLE details & history
Last TLE update: 15 hours ago

TLE from 15 hours ago
0 STARLINK-32304
1 60738U 24152U   25350.58194074  .00000919  00000-0  43174-4 0  9993
2 60738  53.1616 294.6717 0001220  85.4103 274.7037 15.30192309 74127
Epoch: 2025-12-16T13:57Z
TLE epoch observation values (Epoch: 2025-12-16T13:57:59.679Z)
Latitude
-0.00005°
Longitude
-0.29109°
Altitude
476.069 km
Speed
7.629 km/s
True Right ascension
19h 38m 41s
True Declination
0° 00' 00"
Sunlit
Object was in daylight at epoch
Visualization orbit readout
Latitude
Unknown
Longitude
Unknown
Altitude
Unknown
Speed
Unknown
Apparent Right ascension
Unknown
Apparent Declination
Unknown
Sunlit
N/A
Visualization observer readout
Local Sidereal Time
03:24:06
Azimuth
Unknown
Elevation
Unknown
Doppler factor
Unknown
Orbital elements
Apogee altitude
476.33 km
Perigee altitude
474.658 km
Semi-major axis
6,853.631 km
Eccentricity
0.00012
Inclination
53.1616°
RAAN
294.6717°
Arg. of periapsis
85.4103°
True anomaly
274.68977°
Mean anomaly
274.7037°
Eccentric anomaly
274.69673°
Mean motion
3.82527 °/min
Orbital period
94.11 mins
BSTAR
0.000043174
Loading maneuver chart data...
Computing Atmospheric mass density...
Loading historical data...
Loading historical data...
Loading historical data...
Loading historical data...
Loading historical data...
Loading historical data...
Loading historical data...

Documentation

Showing up to 5 results
|